Starlink 6350

operational
NORAD ID: 57226 Int'l Des: 2023-094 Owner: SPXS Country: US Constellation: starlink
LEOCIRCULAR

About Starlink 6350

Description loading...

Live Position

Loading 3D Globe...

Upcoming Passes

Altitude History

Altitude vs Time

uPlot chart will show altitude changes over time

Two-Line Element Set

1 57226U 23094J 25351.35236146 .00000929 00000-0 83806-4 0 9995
2 57226 43.0028 117.7803 0001037 278.9939 81.0786 15.02530640134730
Epoch: Dec 17, 2025 • Age: 12 hours

Current Status

Altitude 558.7 km
Velocity 7.59 km/s
Sub-Earth Point 16.96°N, 115.25°W
Launch Date Jul 7, 2023
Age 2.4 years
Type internet

Technical Details

Classification Payload
Mass 305.00 kg
Dry Mass 290.00 kg
Total Mass 305.00 kg
Length 0.20 m
Diameter 2.80 m
Span 9.00 m
Shape Box + pan
Manufacturer SPXS
Bus Type Starlink
Phase Status In Orbit
Owner/State SPXS/US

Large Constellations

Loading constellations...